Voltar ao catálogo

CZ-2C DEB

AtivoPO
NORAD 37770·DEBRIS·🇨🇳 China

Lançado Jul 29, 2011 de Jiuquan Satellite Launch Center

Loading…

Próximas Passagens (próximas 24 horas)

TLE

AtualizadoSource: Space-Track

Época: Sep 14, 2026, 08:00 UTC

1 37770U 11039F   26257.33366749  .00028962  00000-0  12867-2 0  9994
2 37770  97.9196 196.1901 0029132  58.4417  92.9089 15.21107060807094

Acompanhe CZ-2C DEB em tempo real com AllMySat

Download on the App Store